Dubai, UAE

4:24 AM +04 on March 25, 2017 (GMT +0400)
Dubai

Weather History for 41194 - May, 2013

Change the Weather History Date:

Friday, May 24, 2013

  Actual Average Record
Temperature  
Mean Temperature 84 °F -  
Max Temperature 92 °F 100 °F - ()
Min Temperature 76 °F 79 °F - ()
Cooling Degree Days 19    
Growing Degree Days 34 (Base 50)    
Moisture  
Dew Point 69 °F    
Average Humidity 55    
Maximum Humidity 69    
Minimum Humidity 35    
Precipitation  
Precipitation 0.00 in 0.00 in - ()
Sea Level Pressure  
Sea Level Pressure 29.64 in    
Wind  
Wind Speed 9 mph ()    
Max Wind Speed 15 mph    
Max Gust Speed -    
Visibility 6.0 miles    
Events      
T = Trace of Precipitation, MM = Missing Value Source: Averaged Metar Reports

Daily Weather History Graph

Daily Weather History Graph

Search for Another Location

Airport or City:

Trip Planner

Search our weather history database for the weather conditions in past years. The results will help you decide how hot, cold, wet, or windy it might be!

Date:

Astronomy

May. 24, 2013 Rise Set
Actual Time 5:30 AM +04 7:00 PM +04
Civil Twilight 5:04 AM +04 7:26 PM +04
Nautical Twilight 4:34 AM +04 7:56 PM +04
Astronomical Twilight 4:03 AM +04 8:27 PM +04
Moon 6:19 PM +04 (5/24) 4:35 AM +04 (5/24)
Length of Visible Light 14h 21m
Length of Day
13h 30m
Waxing Gibbous, 99% of the Moon is Illuminated
May 24
Waxing Gibbous
May 25
Full
May 31
Last Quarter
Jun 8
New
Jun 16
First Quarter

Hourly Weather History & Observations

Time (+04) Temp. Heat Index Dew Point Humidity Pressure Visibility Wind Dir Wind Speed Gust Speed Precip Events Conditions
12:00 AM 84.2 °F 87.3 °F 68.0 °F 58% 29.68 in - WSW 6.9 mph - N/A   Clear
1:00 AM 83 °F - 68 °F 51% 29.69 in 6 mi WSW 9.2 mph - -  
1:00 AM 82.4 °F 85.4 °F 68.0 °F 62% 29.68 in - WSW 9.2 mph - N/A   Clear
2:00 AM 82.4 °F 85.4 °F 68.0 °F 62% 29.65 in - WSW 8.1 mph - N/A   Clear
3:00 AM 82.4 °F 85.4 °F 68.0 °F 62% 29.65 in - WSW 8.1 mph - N/A   Clear
4:00 AM 80 °F - 67 °F 56% 29.66 in 6 mi South 6.9 mph - -  
4:00 AM 80.6 °F 82.7 °F 66.2 °F 61% 29.65 in - South 6.9 mph - N/A   Clear
5:00 AM 78.8 °F - 66.2 °F 65% 29.65 in - South 6.9 mph - N/A   Clear
6:00 AM 77.0 °F - 66.2 °F 69% 29.65 in - South 9.2 mph - N/A   Clear
7:00 AM 78 °F - 66 °F 59% 29.67 in 6 mi South 10.4 mph - -  
7:00 AM 78.8 °F - 66.2 °F 65% 29.65 in - South 10.4 mph - N/A   Clear
8:00 AM 82.4 °F 84.6 °F 66.2 °F 58% 29.65 in - SSW 11.5 mph - N/A   Clear
9:00 AM 86.0 °F 89.4 °F 68.0 °F 55% 29.68 in - SSW 12.7 mph - N/A   Clear
10:00 AM 90 °F - 66 °F 35% 29.68 in 6 mi West 11.5 mph - -  
10:00 AM 89.6 °F 92.2 °F 66.2 °F 46% 29.68 in - West 11.5 mph - N/A   Clear
11:00 AM 91.4 °F 94.0 °F 66.2 °F 43% 29.65 in - WSW 11.5 mph - N/A   Clear
12:00 PM 91.4 °F 94.0 °F 66.2 °F 43% 29.65 in - West 12.7 mph - N/A   Clear
1:00 PM 92 °F - 68 °F 36% 29.65 in 6 mi West 12.7 mph - -  
1:00 PM 93.2 °F 97.7 °F 68.0 °F 44% 29.62 in - West 12.7 mph - N/A   Clear
2:00 PM 91.4 °F 95.4 °F 68.0 °F 46% 29.62 in - West 13.8 mph - N/A   Clear
3:00 PM 91.4 °F 96.8 °F 69.8 °F 49% 29.59 in - West 12.7 mph - N/A   Clear
4:00 PM 90 °F - 69 °F 41% 29.61 in 6 mi West 15.0 mph - -  
4:00 PM 89.6 °F 94.7 °F 69.8 °F 52% 29.59 in - West 15.0 mph - N/A   Clear
5:00 PM 89.6 °F 94.7 °F 69.8 °F 52% 29.59 in - West 15.0 mph - N/A   Clear
6:00 PM 87.8 °F 93.8 °F 71.6 °F 58% 29.59 in - West 13.8 mph - N/A   Clear
7:00 PM 86 °F - 73 °F 57% 29.60 in 6 mi West 10.4 mph - -  
7:00 PM 86.0 °F 93.4 °F 73.4 °F 66% 29.59 in - West 10.4 mph - N/A   Clear
8:00 PM 84.2 °F 89.6 °F 71.6 °F 66% 29.59 in - WSW 9.2 mph - N/A   Clear
9:00 PM 84.2 °F 89.6 °F 71.6 °F 66% 29.62 in - WSW 9.2 mph - N/A   Clear
10:00 PM 85 °F - 71 °F 55% 29.64 in 6 mi SW 6.9 mph - -  
10:00 PM 84.2 °F 89.6 °F 71.6 °F 66% 29.62 in - SW 6.9 mph - N/A   Clear
11:00 PM 84.2 °F 89.6 °F 71.6 °F 66% 29.62 in - SW 6.9 mph - N/A   Clear